Wind_Speed
52 50 49 50 52 56 59 59 58 56 55 54 51 48 45 44 45 47 49 52 55 58 60 61 62 61 60 58 57 54 52 51 46 40 37 36 37 37 34 30 27 27 27
51 49 48 50 53 56 56 55 54 53 53 50 47 45 44 45 48 50 53 56 59 61 62 62 61 59 57 55 52 49 47 45 42 36 32 32 33 33 29 26 25 24 25
50 48 51 52 53 53 52 52 52 51 50 47 45 45 46 49 51 54 56 59 61 62 62 61 58 56 52 49 46 43 41 39 37 31 27 28 28 28 25 23 23 23 23
49 51 52 51 49 49 50 50 50 48 46 45 46 47 49 52 54 56 58 60 60 60 59 57 53 50 46 43 40 38 36 34 31 27 23 23 23 22 21 20 20 21 21
51 50 49 48 48 48 49 49 47 45 45 46 48 50 53 54 56 58 58 58 58 55 53 50 47 44 40 36 34 33 31 29 25 22 20 18 18 18 17 17 17 18 19
49 48 47 47 48 48 48 46 45 45 46 48 50 53 54 56 57 57 57 55 53 49 46 44 41 37 34 31 29 28 25 22 19 18 15 14 13 13 14 14 15 15 15
47 46 46 47 47 47 45 44 44 46 48 50 52 53 54 55 55 53 51 49 46 43 41 38 35 32 28 26 24 22 19 16 14 12 11 11 10 11 11 11 11 11 12
45 45 46 46 45 44 43 44 46 48 50 51 52 53 53 52 50 47 45 43 41 39 37 33 30 27 24 22 20 17 14 10 8 8 8 7 8 8 8 8 8 8 8
44 45 45 44 43 42 43 46 48 50 50 50 51 51 49 47 45 42 40 39 38 36 33 29 25 22 20 18 15 11 7 5 6 6 6 6 6 6 6 6 6 5 4
43 42 42 41 41 43 45 47 48 48 48 48 48 47 45 42 40 38 38 37 35 33 29 25 21 18 15 12 8 6 5 6 7 7 7 7 7 7 7 6 5 3 1
39 39 38 39 42 44 46 46 46 46 46 46 46 45 42 38 37 36 36 34 31 28 24 20 16 12 8 4 4 6 8 9 10 10 10 9 10 9 8 7 5 5 6
35 36 38 41 43 44 44 44 43 43 43 43 42 41 38 36 35 34 32 29 25 22 18 14 10 5 1 4 8 11 12 12 12 11 10 10 10 9 9 8 8 9 10
33 35 39 41 42 42 41 41 40 40 40 40 39 38 35 33 32 29 26 23 20 17 13 8 5 3 6 10 13 14 15 14 13 11 11 10 9 9 9 10 11 13 14
33 36 39 39 40 39 38 38 37 37 37 36 36 34 31 29 27 24 20 19 17 14 10 7 6 10 13 15 16 16 16 15 13 11 10 10 10 10 11 12 14 16 17
34 36 37 38 37 37 36 35 34 34 33 33 31 29 27 25 22 18 17 16 14 11 9 8 10 13 15 17 17 16 15 13 11 10 10 10 10 11 12 14 17 19 20
33 35 35 36 35 35 34 33 32 31 31 29 28 26 24 21 17 15 16 15 13 11 10 10 13 16 17 18 17 16 14 13 12 11 10 10 11 12 14 17 20 22 23
32 34 34 34 34 33 32 31 30 29 28 27 26 24 21 18 15 14 15 14 13 11 11 12 14 17 19 18 17 15 14 12 11 11 11 11 13 14 17 21 23 24 25
32 33 34 34 33 31 30 28 26 25 25 25 24 21 18 15 13 13 14 13 12 11 11 13 16 18 18 18 16 15 13 12 11 12 12 13 15 18 21 23 24 24 24
32 33 33 32 31 29 26 24 23 23 23 23 22 20 16 13 12 13 13 11 11 11 12 14 16 18 18 17 16 14 12 12 12 12 12 14 17 20 23 24 24 24 24
32 33 32 31 29 26 24 22 21 21 22 21 19 18 15 12 11 11 12 11 10 11 12 14 15 16 17 16 15 13 12 12 12 12 14 16 19 21 23 24 24 24 23
32 32 31 29 26 24 21 20 20 20 21 20 18 16 14 11 9 10 11 10 9 10 12 14 14 15 15 14 13 12 12 12 12 13 15 17 19 22 23 23 23 22 21
32 32 30 28 25 22 20 19 20 21 21 20 18 16 15 12 10 9 10 10 9 10 12 13 14 14 13 13 12 11 11 12 12 13 15 17 19 21 22 22 21 20 19
33 32 30 28 25 22 21 20 21 22 22 21 19 17 15 13 11 10 10 11 10 10 12 13 13 13 13 12 11 11 11 11 12 13 15 17 18 19 19 19 18 17 15
34 33 31 28 26 23 22 22 22 23 23 22 20 18 16 14 12 11 11 11 12 11 11 12 13 12 12 12 11 11 12 12 13 14 15 16 17 17 17 16 15 14 13
35 34 32 30 27 25 23 23 24 24 25 24 22 20 18 16 14 13 12 12 12 13 12 13 13 13 12 12 11 12 12 13 13 14 15 15 15 15 15 14 14 13 12
37 35 33 31 29 27 25 25 25 25 25 25 24 22 20 18 16 15 14 14 13 13 13 13 13 13 12 12 11 12 12 13 14 14 14 14 14 14 13 13 13 12 11
Wind_Direction
289 292 296 301 304 306 307 307 307 308 309 309 308 307 306 304 303 302 301 301 301 301 300 300 299 298 297 295 294 293 292 292 290 284 278 268 262 262 263 263 260 257 254
290 296 302 306 308 308 307 307 308 309 309 309 308 306 306 305 304 304 304 303 303 302 301 301 300 299 297 295 293 292 291 290 289 283 274 265 259 259 260 260 258 255 252
297 304 310 311 309 308 308 309 310 310 310 309 307 307 307 307 306 306 306 305 304 303 302 301 300 299 297 295 293 290 290 290 287 281 269 260 257 257 256 257 256 254 252
304 310 312 310 309 310 310 311 311 311 310 309 308 309 309 309 308 307 306 305 305 304 304 303 302 300 297 295 291 289 289 289 284 277 266 257 253 253 254 254 253 254 253
310 311 310 310 311 312 312 312 312 311 310 310 311 311 311 310 309 309 308 307 307 306 306 305 304 301 298 294 291 289 288 286 279 272 264 252 247 249 250 250 252 254 253
310 310 310 312 313 313 313 313 312 311 312 312 313 312 312 312 311 310 310 309 309 309 309 307 305 303 299 296 292 290 286 279 271 267 257 244 244 246 246 248 251 251 250
309 310 312 313 313 314 314 313 313 313 314 314 314 313 313 313 313 313 312 311 311 312 311 309 306 304 300 297 294 290 283 273 262 254 243 239 240 239 240 242 245 241 245
309 311 313 314 314 314 313 313 314 315 315 315 315 315 315 315 315 315 313 312 314 314 313 311 308 305 301 298 293 286 278 263 244 231 227 227 227 227 227 228 223 227 243
310 312 314 314 314 314 314 315 316 316 316 315 316 316 317 318 317 316 315 315 315 315 313 310 307 304 301 296 288 275 256 226 201 191 190 193 195 196 191 188 194 214 243
311 313 314 313 313 314 316 316 317 316 316 317 318 319 321 320 318 318 318 317 316 316 315 311 308 306 302 293 273 236 198 173 162 156 157 157 156 152 153 158 163 163 124
313 313 313 313 314 316 317 317 317 317 318 320 321 323 324 322 321 320 320 320 319 318 316 315 313 311 302 275 205 169 157 149 146 147 146 143 141 139 140 139 131 116 99
312 312 313 315 316 318 318 318 319 320 322 324 325 327 327 326 325 325 325 324 325 325 324 324 325 326 298 155 147 144 143 141 140 142 142 140 136 133 130 123 115 110 102
312 314 316 317 318 319 320 321 323 324 326 327 328 329 329 330 330 331 332 335 337 338 342 350 4 75 121 131 135 136 137 137 137 135 133 133 131 126 122 118 113 112 106
315 317 319 320 321 322 323 325 326 328 329 331 331 331 332 334 337 340 345 349 351 354 7 32 79 110 121 128 132 134 134 134 132 128 127 125 124 123 123 119 118 118 113
319 321 323 324 325 326 327 328 330 331 332 333 334 336 338 341 345 350 355 358 3 13 36 70 105 118 124 129 131 132 131 129 125 123 124 125 124 124 124 123 124 122 117
324 326 327 327 328 329 330 332 333 335 336 338 341 344 346 349 353 358 2 6 19 37 62 89 113 122 126 129 130 129 127 121 117 117 120 125 127 127 127 128 129 125 121
329 330 330 331 331 332 333 335 336 339 342 346 349 351 353 356 2 6 9 19 32 50 72 98 118 125 128 130 130 128 124 116 109 107 113 122 128 130 132 132 131 129 125
334 334 334 334 334 334 336 337 340 344 348 351 354 357 360 4 11 15 19 29 42 60 82 104 121 128 130 131 130 126 121 113 106 104 110 120 128 132 134 134 133 131 127
339 338 337 336 336 337 340 343 346 350 353 356 360 3 7 13 21 24 30 42 54 70 90 108 121 130 133 132 130 125 119 113 108 104 109 121 129 134 136 135 134 132 129
344 342 341 341 342 344 347 350 353 356 358 1 4 8 13 21 29 34 39 52 66 79 94 108 121 130 135 136 132 127 120 113 109 106 110 122 129 135 137 137 136 134 133
350 349 349 350 352 355 357 359 1 3 5 8 11 16 21 29 38 43 47 60 78 87 99 109 119 129 135 138 136 131 125 117 111 110 114 123 131 135 138 139 139 138 136
359 359 360 1 3 6 8 10 12 13 15 17 20 24 30 38 48 54 55 66 84 93 101 110 116 124 132 138 139 136 132 125 117 113 118 124 131 136 138 139 140 141 141
9 9 10 12 14 17 20 21 21 22 23 25 28 31 35 43 53 60 65 74 85 97 102 109 115 122 127 132 136 138 136 132 126 121 122 126 132 136 139 142 143 145 145
17 18 19 21 23 26 28 29 29 28 29 31 34 37 42 49 59 65 72 81 87 95 103 108 114 119 124 127 131 137 138 136 133 130 129 129 133 137 140 142 143 144 145
24 25 26 27 30 32 33 33 33 33 34 36 39 43 48 55 62 69 77 86 92 95 101 106 111 116 119 123 127 133 137 139 139 136 134 134 134 137 140 143 143 143 144
31 31 31 32 34 36 36 36 36 37 38 40 43 47 52 58 64 72 81 91 96 97 100 105 107 113 116 119 123 128 134 140 143 143 141 138 136 136 139 141 143 144 144
Height
5745 5741 5737 5732 5727 5720 5713 5705 5697 5689 5681 5673 5665 5658 5651 5644 5639 5633 5627 5620 5614 5606 5599 5592 5585 5578 5571 5564 5558 5553 5548 5544 5542 5542 5538 5535 5533 5533 5534 5536 5537 5538 5539
5734 5730 5725 5720 5714 5707 5700 5692 5684 5676 5668 5660 5653 5646 5639 5633 5627 5620 5613 5606 5598 5590 5583 5575 5568 5561 5554 5548 5543 5538 5534 5530 5528 5527 5526 5523 5523 5523 5525 5527 5528 5529 5531
5722 5717 5712 5707 5701 5694 5686 5679 5671 5663 5656 5648 5641 5634 5627 5621 5614 5606 5599 5591 5582 5574 5566 5558 5551 5545 5539 5533 5529 5525 5521 5518 5515 5514 5514 5513 5514 5515 5517 5518 5519 5521 5522
5712 5706 5701 5694 5688 5681 5673 5666 5659 5651 5644 5637 5630 5623 5615 5608 5600 5592 5584 5575 5566 5558 5549 5542 5535 5530 5525 5520 5516 5513 5510 5507 5505 5504 5504 5505 5506 5507 5509 5511 5512 5514 5515
5701 5695 5689 5682 5675 5668 5661 5654 5647 5640 5633 5626 5618 5611 5603 5595 5586 5578 5569 5560 5551 5543 5535 5527 5521 5516 5512 5508 5505 5502 5500 5498 5497 5496 5497 5498 5500 5501 5503 5505 5506 5508 5509
5690 5684 5677 5671 5664 5657 5650 5643 5636 5629 5622 5614 5606 5598 5590 5581 5572 5563 5554 5545 5537 5530 5523 5516 5509 5505 5501 5498 5495 5493 5491 5490 5490 5490 5492 5493 5495 5497 5498 5500 5501 5503 5504
5679 5673 5666 5660 5653 5646 5639 5633 5626 5619 5611 5603 5594 5586 5577 5568 5559 5550 5540 5532 5525 5519 5513 5506 5500 5496 5492 5490 5487 5486 5485 5484 5485 5486 5488 5489 5491 5493 5494 5496 5497 5499 5500
5669 5663 5656 5649 5642 5636 5630 5623 5616 5608 5600 5591 5583 5574 5565 5556 5547 5539 5530 5522 5515 5509 5503 5498 5493 5489 5485 5483 5482 5481 5481 5481 5482 5484 5485 5487 5489 5490 5492 5493 5495 5496 5497
5659 5653 5646 5640 5634 5627 5621 5613 5606 5597 5589 5580 5572 5563 5555 5546 5537 5529 5521 5513 5507 5501 5495 5490 5486 5483 5480 5478 5477 5477 5478 5479 5481 5482 5484 5486 5487 5489 5491 5492 5494 5495 5496
5650 5644 5638 5632 5626 5619 5612 5604 5596 5587 5579 5570 5562 5553 5545 5536 5528 5520 5513 5506 5499 5493 5488 5483 5480 5478 5475 5474 5474 5475 5477 5479 5481 5482 5484 5486 5487 5489 5491 5493 5494 5495 5495
5642 5637 5631 5625 5618 5611 5603 5595 5586 5578 5569 5561 5552 5544 5536 5528 5520 5512 5505 5498 5492 5487 5482 5478 5476 5473 5472 5472 5473 5475 5477 5480 5482 5484 5485 5487 5489 5491 5492 5494 5495 5496 5496
5636 5630 5624 5617 5610 5602 5594 5586 5577 5569 5561 5552 5544 5535 5527 5520 5513 5505 5498 5492 5486 5482 5478 5475 5473 5471 5471 5472 5474 5477 5479 5481 5484 5486 5488 5489 5491 5493 5494 5496 5497 5498 5498
5630 5624 5617 5610 5602 5594 5586 5578 5569 5561 5553 5545 5537 5529 5521 5514 5507 5501 5494 5488 5483 5479 5476 5473 5472 5472 5472 5474 5477 5479 5482 5484 5486 5488 5490 5492 5494 5495 5497 5499 5500 5500 5501
5624 5618 5610 5602 5594 5586 5578 5570 5563 5555 5547 5539 5532 5524 5517 5510 5504 5497 5492 5487 5483 5479 5476 5474 5474 5474 5476 5478 5480 5483 5485 5487 5490 5492 5493 5495 5497 5498 5500 5502 5503 5504 5506
5618 5611 5603 5595 5587 5579 5572 5564 5557 5550 5542 5535 5527 5520 5513 5507 5501 5496 5492 5488 5484 5480 5478 5477 5477 5478 5480 5482 5485 5487 5490 5492 5493 5495 5496 5498 5500 5502 5503 5505 5507 5509 5511
5613 5605 5597 5589 5581 5573 5566 5559 5551 5545 5538 5530 5523 5516 5510 5505 5500 5496 5492 5489 5485 5482 5481 5480 5481 5482 5484 5487 5489 5492 5494 5496 5497 5499 5500 5501 5503 5505 5507 5509 5511 5514 5517
5607 5599 5591 5583 5575 5568 5561 5554 5547 5541 5534 5527 5521 5514 5509 5504 5500 5497 5494 5490 5487 5486 5484 5484 5485 5486 5489 5491 5494 5496 5498 5500 5501 5502 5504 5505 5506 5508 5511 5513 5516 5520 5522
5602 5594 5586 5578 5570 5563 5556 5550 5543 5537 5531 5525 5520 5514 5509 5505 5501 5498 5495 5493 5491 5489 5488 5488 5489 5491 5493 5496 5498 5501 5503 5504 5505 5506 5507 5508 5510 5512 5515 5518 5522 5525 5528
5598 5589 5581 5573 5566 5559 5552 5546 5541 5535 5530 5524 5519 5514 5509 5506 5503 5500 5498 5496 5494 5493 5492 5493 5494 5496 5498 5501 5503 5505 5507 5508 5509 5510 5511 5513 5514 5517 5520 5524 5527 5531 5534
5594 5585 5577 5569 5562 5555 5549 5544 5539 5534 5529 5523 5519 5514 5510 5507 5505 5503 5501 5499 5498 5497 5497 5497 5498 5500 5502 5505 5507 5509 5511 5512 5513 5514 5516 5517 5519 5522 5526 5529 5533 5536 5540
5590 5582 5573 5565 5558 5552 5547 5542 5538 5533 5528 5523 5519 5514 5511 5508 5506 5505 5503 5502 5501 5501 5501 5502 5503 5505 5507 5509 5511 5513 5515 5516 5518 5519 5520 5522 5524 5527 5531 5535 5538 5541 5545
5588 5579 5571 5564 5557 5552 5547 5543 5538 5533 5529 5524 5519 5516 5513 5510 5508 5507 5506 5505 5505 5505 5505 5506 5507 5509 5511 5513 5515 5517 5519 5521 5522 5524 5525 5527 5530 5533 5536 5539 5543 5546 5549
5587 5579 5571 5564 5558 5553 5548 5544 5540 5535 5530 5525 5521 5518 5515 5513 5511 5510 5509 5509 5509 5509 5509 5510 5511 5513 5515 5517 5518 5521 5523 5525 5526 5528 5530 5532 5535 5538 5541 5544 5547 5550 5553
5588 5580 5573 5566 5560 5555 5551 5547 5542 5538 5533 5528 5524 5521 5518 5515 5514 5513 5512 5512 5512 5513 5514 5514 5516 5517 5519 5520 5522 5524 5526 5528 5530 5532 5535 5537 5540 5543 5546 5549 5551 5554 5556
5591 5583 5576 5570 5564 5559 5554 5550 5546 5541 5537 5532 5528 5524 5521 5519 5517 5516 5516 5516 5516 5517 5518 5519 5520 5521 5523 5524 5526 5528 5530 5532 5534 5537 5539 5542 5544 5547 5549 5552 5555 5557 5559
5595 5588 5581 5574 5569 5563 5559 5554 5550 5546 5541 5537 5533 5529 5526 5523 5521 5520 5520 5520 5521 5521 5522 5523 5524 5525 5527 5528 5530 5532 5534 5536 5538 5541 5543 5546 5548 5550 5553 5555 5557 5560 5562